Вернуться в каталог

FENGYUN 1C DEB

АктивенSSO
NORAD 30514·DEBRIS·🇨🇳 China

Запущен May 10, 1999 с Taiyuan Satellite Launch Center

Loading…

Ближайшие Пролёты (ближайшие 24 часа)

TLE

СвежийSource: Space-Track

Эпоха: Sep 13, 2026, 18:34 UTC

1 30514U 99025AJC 26256.77417417  .00001090  00000-0  33709-3 0  9992
2 30514  98.3937 278.0459 0171218 355.0368   4.9113 14.35220929 21670

Отслеживайте FENGYUN 1C DEB в реальном времени с AllMySat

Download on the App Store